Location: Bailleul
(50.3375°N, 2.8513°E)
Time: 02:37:56
(UTC+00:00)

Cosmos 2016 Rocket - Pass Details

Date: 28 October 2021
Orbit: 946 x 1001 km, 83.0° (Epoch: 26 November)

Event Time Altitude Azimuth Distance (km) Brightness Sun altitude
Rises 20:53:04 0° 231° (SW) 3,646 7.2 -40.9°
Reaches altitude 10° 20:56:08 10° 246° (WSW) 2,695 6.6 -41.4°
Maximum altitude 21:00:55 23° 297° (WNW) 1,915 6.0 -42.0°
Drops below altitude 10° 21:05:41 10° 349° (NNW) 2,687 6.7 -42.6°
Sets 21:08:46 0° 3° (N) 3,632 7.4 -43.0°
